EW1979 Weather Reports


time (UTC)temp
F
wind
direction
speed
knots
gust
knots
rain 1hr
in
rain 24hr
in
rain mn
in
humidity
%
barometer
mb
20260508173003 70 86 0.0 0.0 0.00 0.00 0.00 57 1009.0
20260508171507 69 64 0.0 0.0 0.00 0.00 0.00 44 1009.2
20260508170104 68 16 0.0 0.0 0.00 0.00 0.00 18 1009.8
20260508164606 66 13 0.0 0.0 0.00 0.00 0.00 8 1010.0
20260508161604 64 11 0.0 0.0 0.00 0.00 0.00 12 1010.5
20260508160003 63 12 0.0 0.0 0.00 0.00 0.00 19 1010.9
20260508154504 62 11 0.0 0.0 0.00 0.00 0.00 20 1011.3
20260508153104 62 12 0.0 0.0 0.00 0.00 0.00 19 1011.5
20260508151603 62 19 0.0 0.0 0.00 0.00 0.00 20 1011.5
20260508150009 61 19 0.0 0.0 0.00 0.00 0.00 23 1011.4
20260508143002 60 19 0.0 0.0 0.00 0.00 0.00 32 1011.5
20260508141509 60 17 0.0 0.0 0.00 0.00 0.00 36 1011.7
20260508140007 59 17 0.0 0.0 0.00 0.00 0.00 40 1011.8
20260508134633 60 17 0.0 0.0 0.00 0.00 0.00 40 1011.5
20260508133113 60 17 0.0 0.0 0.00 0.00 0.00 39 1011.4
20260508131505 59 17 0.0 0.0 0.00 0.00 0.00 42 1011.5
20260508130002 59 17 0.0 0.0 0.00 0.00 0.00 42 1011.2
20260508124504 59 17 0.0 0.0 0.00 0.00 0.00 44 1011.0
20260508123010 59 17 0.0 0.0 0.00 0.00 0.00 46 1011.1
20260508121603 58 17 0.0 0.0 0.00 0.00 0.00 48 1011.5
20260508113002 59 17 0.0 0.0 0.00 0.00 0.00 61 1011.5
20260508111504 59 17 0.0 0.0 0.00 0.00 0.00 64 1011.7
20260508104603 59 17 0.0 0.0 0.00 0.00 0.00 69 1011.4
20260508103102 59 17 0.0 0.0 0.00 0.00 0.00 72 1011.1
20260508101503 59 17 0.0 0.0 0.00 0.00 0.00 75 1011.3
20260508100006 59 17 0.0 0.0 0.00 0.00 0.00 75 1011.1
20260508094615 59 17 0.0 0.0 0.00 0.00 0.00 75 1011.1
20260508093102 59 17 0.0 0.0 0.00 0.00 0.00 74 1011.0
20260508091632 59 17 0.0 0.0 0.00 0.00 0.00 75 1010.9
20260508090013 59 17 0.0 0.0 0.00 0.00 0.00 76 1011.3
20260508084508 59 15 0.0 0.0 0.00 0.00 0.00 77 1010.9
20260508083102 59 15 0.0 0.0 0.00 0.00 0.00 79 1011.1
20260508081508 60 15 0.0 0.0 0.00 0.00 0.00 80 1011.2
20260508080007 60 15 0.0 0.0 0.00 0.00 0.00 81 1011.5
20260508074601 60 15 0.0 0.0 0.00 0.00 0.00 81 1011.8
20260508073008 60 15 0.0 0.0 0.00 0.00 0.00 80 1011.8
20260508071603 60 15 0.0 0.0 0.00 0.00 0.00 81 1012.0
20260508064603 60 15 0.0 0.0 0.00 0.00 0.00 80 1012.5
20260508060105 60 14 0.0 0.0 0.00 0.00 0.00 80 1011.5
20260508054503 61 11 0.0 0.0 0.00 0.00 0.00 80 1011.8
20260508053104 61 11 0.0 0.0 0.00 0.00 0.00 80 1013.1
20260508051504 61 11 0.0 0.0 0.00 0.00 0.00 80 1012.9
20260508050003 61 11 0.0 0.0 0.00 0.00 0.00 79 1012.5
20260508044607 61 11 0.0 0.0 0.00 0.00 0.00 79 1012.7
20260508043004 61 12 0.0 0.0 0.00 0.00 0.00 78 1013.1
20260508041508 61 13 0.0 0.0 0.00 0.00 0.00 77 1013.4
20260508034603 61 69 0.0 0.0 0.00 0.00 0.00 77 1011.2
20260508031504 61 53 0.0 0.0 0.00 0.00 0.00 79 1012.2
20260508030011 61 51 0.0 0.0 0.00 0.00 0.00 79 1013.0
20260508024604 61 51 0.0 0.0 0.00 0.00 0.00 78 1013.0
20260508023106 61 52 0.0 0.0 0.00 0.00 0.00 78 1013.4
20260508020109 61 52 0.0 0.0 0.00 0.00 0.00 78 1013.1
20260508011603 61 51 0.0 0.0 0.00 0.00 0.00 76 1011.8
20260508004502 62 30 0.0 0.0 0.00 0.00 0.00 74 1011.1
20260508003122 62 57 0.0 0.0 0.00 0.00 0.00 73 1010.9
20260508001616 63 314 0.0 0.0 0.00 0.00 0.00 71 1011.4
20260508000135 63 90 0.0 0.0 0.00 0.00 0.00 70 1009.0
20260507234503 63 105 0.0 0.0 0.00 0.00 0.00 71 1010.8
20260507233008 63 66 0.0 0.0 0.00 0.00 0.00 71 1011.7
20260507230016 64 60 0.0 0.0 0.00 0.00 0.00 70 1012.8
20260507224602 65 65 0.0 0.0 0.00 0.00 0.00 68 1012.6
20260507223105 65 88 0.0 0.0 0.00 0.00 0.00 69 1012.6
20260507221507 65 12 0.0 0.0 0.00 0.00 0.00 70 1012.7
20260507214603 65 49 0.0 0.0 0.00 0.00 0.00 70 1012.7
20260507213006 64 79 0.0 0.0 0.00 0.00 0.00 74 1012.8
20260507211503 65 11 0.0 0.0 0.00 0.00 0.00 71 1013.4
20260507210004 65 22 0.0 0.0 0.00 0.00 0.00 70 1013.4
20260507204503 64 64 0.0 0.0 0.00 0.00 0.00 74 1013.2
20260507201508 64 49 0.0 0.0 0.00 0.00 0.00 73 1013.2
20260507200007 63 5 0.0 0.0 0.00 0.00 0.00 75 1013.1
20260507194502 62 16 0.0 0.0 0.00 0.00 0.00 75 1012.9
20260507193102 61 23 0.0 0.0 0.00 0.00 0.00 75 1013.7
20260507191507 59 5 0.0 0.0 0.00 0.00 0.00 74 1014.5
20260507190004 59 360 0.0 0.0 0.00 0.00 0.00 72 1014.3
20260507184604 58 360 0.0 0.0 0.00 0.00 0.00 66 1014.8
20260507183103 58 360 0.0 0.0 0.00 0.00 0.00 65 1015.0
20260507181607 57 327 0.0 0.0 0.00 0.00 0.00 66 1014.4